Zurück zum Katalog

STARLINK-1350

AktivKommunikationVLEO
NORAD 45535·PAYLOAD·🇺🇸 United States

Gestartet Apr 22, 2020 von Cape Canaveral Space Force Station

Loading…

Nächste Überflüge (nächste 24 Stunden)

TLE

AktuellSource: CelesTrak SupGP

Epoche: Sep 14, 2026, 13:54 UTC

1 45535C 20025E   26257.57965278  .00005574  00000+0  12377-3 0  2572
2 45535  53.0682 222.1627 0002397  66.1430 312.2106 15.43112020    16

Verfolge STARLINK-1350 in Echtzeit mit AllMySat

Download on the App Store